Location: Buch
(50.1863°N, 11.0141°E)
Time: 12:59:35
(UTC+00:00)

Meteor 2-15 - Pass Details

Date: 18 January 2020
Orbit: 936 x 956 km, 82.5° (Epoch: 16 February)

Event Time Altitude Azimuth Distance (km) Brightness Sun altitude
Exits shadow 04:19:45 66° 264° (W) 1,040 4.3 -26.2°
Maximum altitude 04:20:03 67° 283° (WNW) 1,032 4.3 -26.2°
Drops below altitude 10° 04:26:13 10° 6° (N) 2,698 6.8 -25.2°
Sets 04:28:45 0° 9° (N) 3,648 7.6 -24.8°
